Weather History for Monett, MO

Change the Weather History Date:

Monday, March 18, 2013

  Actual Average (KJLN) Record (KJLN)
Temperature  
Mean Temperature 44 °F 50 °F  
Max Temperature 51 °F 61 °F 83 °F (1982)
Min Temperature 37 °F 38 °F 18 °F (1965)
Degree Days  
Heating Degree Days 21 16  
Month to date heating degree days 329  
Since 1 July heating degree days 3583  
Cooling Degree Days 0 0  
Month to date cooling degree days 0  
Year to date cooling degree days 1  
Moisture  
Dew Point 35 °F    
Average Humidity 77    
Maximum Humidity 100    
Minimum Humidity 40    
Precipitation  
Precipitation 0.00 in 0.11 in 3.22 in (2008)
Month to date precipitation 1.89  
Year to date precipitation 6.24  
Sea Level Pressure  
Sea Level Pressure 29.86 in    
Wind  
Wind Speed 8 mph (WNW)    
Max Wind Speed 18 mph    
Max Gust Speed 25 mph    
Visibility 8 miles    
Events Rain    
T = Trace of Precipitation, MM = Missing Value Source: NWS Daily Summary

Daily Weather History Graph

Daily Weather History Graph

Search for Another Location

Airport:

Trip Planner

Search our weather history database for the weather conditions in past years. The results will help you decide how hot, cold, wet, or windy it might be!

Date:

Astronomy

Mar. 18, 2013 Rise Set
Actual Time 7:22 AM CDT 7:26 PM CDT
Civil Twilight 6:56 AM CDT 7:52 PM CDT
Nautical Twilight 6:26 AM CDT 8:22 PM CDT
Astronomical Twilight 5:55 AM CDT 8:53 PM CDT
Moon 11:30 AM CDT 1:18 AM CDT
Length of Visible Light 12h 55m
Length of Day
12h 04m
Waxing Crescent, 41% of the Moon is Illuminated
Mar 18
Waxing Crescent
Mar 19
First Quarter
Mar 27
Full
Apr 2
Last Quarter
Apr 10
New

Hourly Weather History & Observations

Time (CDT) Temp. Windchill Dew Point Humidity Pressure Visibility Wind Dir Wind Speed Gust Speed Precip Events Conditions
12:15 AM 41.0 °F 37.1 °F 39.2 °F 93% 29.70 in 4.0 mi SSE 5.8 mph - N/A   Overcast
12:35 AM 41.0 °F - 41.0 °F 100% 29.70 in 3.0 mi Calm Calm - N/A   Overcast
12:55 AM 41.0 °F - 41.0 °F 100% 29.69 in 1.8 mi Calm Calm - N/A   Overcast
1:15 AM 41.0 °F 39.0 °F 41.0 °F 100% 29.69 in 1.5 mi SSE 3.5 mph - N/A   Overcast
1:55 AM 41.0 °F 39.0 °F 41.0 °F 100% 29.69 in 2.0 mi SSW 3.5 mph - N/A   Overcast
2:15 AM 41.0 °F 38.0 °F 41.0 °F 100% 29.71 in 1.2 mi WSW 4.6 mph - N/A   Overcast
2:35 AM 41.0 °F 37.1 °F 41.0 °F 100% 29.71 in 0.8 mi West 5.8 mph - N/A   Overcast
2:55 AM 41.0 °F 36.4 °F 41.0 °F 100% 29.72 in 2.5 mi WSW 6.9 mph - N/A   Overcast
3:15 AM 41.0 °F 37.1 °F 41.0 °F 100% 29.72 in 2.5 mi West 5.8 mph - N/A   Overcast
3:35 AM 41.0 °F 37.1 °F 41.0 °F 100% 29.72 in 4.0 mi West 5.8 mph - N/A   Overcast
3:55 AM 41.0 °F 36.4 °F 41.0 °F 100% 29.71 in 7.0 mi SW 6.9 mph - N/A   Overcast
4:15 AM 41.0 °F 38.0 °F 41.0 °F 100% 29.71 in 7.0 mi WSW 4.6 mph - N/A Rain Light Rain
4:35 AM 41.0 °F 35.2 °F 41.0 °F 100% 29.72 in 7.0 mi WSW 9.2 mph - N/A   Overcast
4:55 AM 41.0 °F 35.2 °F 41.0 °F 100% 29.70 in 7.0 mi WNW 9.2 mph - N/A   Overcast
5:15 AM 41.0 °F 34.7 °F 41.0 °F 100% 29.73 in 10.0 mi West 10.4 mph - N/A   Overcast
5:35 AM 41.0 °F 34.7 °F 41.0 °F 100% 29.73 in 10.0 mi West 10.4 mph - N/A   Overcast
5:55 AM 41.0 °F 35.2 °F 41.0 °F 100% 29.74 in 10.0 mi WNW 9.2 mph - N/A   Overcast
6:15 AM 41.0 °F 34.7 °F 41.0 °F 100% 29.74 in 7.0 mi WNW 10.4 mph - N/A   Overcast
6:35 AM 41.0 °F 35.8 °F 41.0 °F 100% 29.74 in 7.0 mi WNW 8.1 mph - N/A   Overcast
6:55 AM 41.0 °F 34.7 °F 39.2 °F 93% 29.77 in 10.0 mi WNW 10.4 mph - N/A   Overcast
7:15 AM 41.0 °F 34.7 °F 39.2 °F 93% 29.79 in 10.0 mi WNW 10.4 mph - N/A   Overcast
7:35 AM 41.0 °F 34.7 °F 39.2 °F 93% 29.79 in 10.0 mi WNW 10.4 mph - N/A   Overcast
7:55 AM 39.2 °F 32.5 °F 37.4 °F 93% 29.81 in 5.0 mi WNW 10.4 mph - N/A   Overcast
8:15 AM 39.2 °F 31.6 °F 37.4 °F 93% 29.84 in 4.0 mi WNW 12.7 mph 16.1 mph N/A   Overcast
8:35 AM 39.2 °F 34.2 °F 37.4 °F 93% 29.82 in 10.0 mi NW 6.9 mph - N/A   Overcast
8:55 AM 39.2 °F 30.8 °F 37.4 °F 93% 29.84 in 7.0 mi NW 15.0 mph 18.4 mph N/A Rain Rain
9:15 AM 37.4 °F 27.8 °F 35.6 °F 93% 29.84 in 10.0 mi NW 17.3 mph 25.3 mph N/A   Overcast
9:35 AM 37.4 °F 27.8 °F 35.6 °F 93% 29.82 in 7.0 mi NNW 17.3 mph 21.9 mph N/A   Overcast
9:55 AM 37.4 °F 27.8 °F 35.6 °F 93% 29.84 in 10.0 mi NW 17.3 mph 23.0 mph N/A   Overcast
10:15 AM 37.4 °F 28.5 °F 35.6 °F 93% 29.87 in 10.0 mi NW 15.0 mph 21.9 mph N/A   Overcast
10:35 AM 37.4 °F 27.5 °F 35.6 °F 93% 29.88 in 10.0 mi NW 18.4 mph 24.2 mph N/A   Overcast
10:55 AM 37.4 °F 29.8 °F 35.6 °F 93% 29.89 in 10.0 mi NNW 11.5 mph - N/A   Overcast
11:15 AM 37.4 °F 28.2 °F 35.6 °F 93% 29.88 in 10.0 mi NNW 16.1 mph 19.6 mph N/A   Overcast
11:35 AM 37.4 °F 28.2 °F 35.6 °F 93% 29.90 in 10.0 mi NNW 16.1 mph - N/A   Overcast
11:55 AM 37.4 °F 28.9 °F 35.6 °F 93% 29.91 in 10.0 mi NNW 13.8 mph 20.7 mph N/A   Overcast
12:15 PM 37.4 °F 29.8 °F 35.6 °F 93% 29.91 in 10.0 mi NNW 11.5 mph - N/A   Overcast
12:35 PM 37.4 °F 29.8 °F 35.6 °F 93% 29.92 in 10.0 mi NW 11.5 mph 18.4 mph N/A   Overcast
12:55 PM 39.2 °F 31.6 °F 35.6 °F 87% 29.93 in 10.0 mi NNW 12.7 mph - N/A   Overcast
1:15 PM 41.0 °F 34.3 °F 35.6 °F 81% 29.93 in 10.0 mi NW 11.5 mph - N/A   Overcast
1:35 PM 42.8 °F 37.5 °F 35.6 °F 76% 29.93 in 10.0 mi NNW 9.2 mph - N/A   Mostly Cloudy
1:55 PM 44.6 °F 39.7 °F 35.6 °F 71% 29.92 in 10.0 mi NW 9.2 mph - N/A   Scattered Clouds
2:15 PM 44.6 °F 40.2 °F 35.6 °F 71% 29.92 in 10.0 mi NW 8.1 mph - N/A   Scattered Clouds
2:35 PM 46.4 °F 41.5 °F 35.6 °F 66% 29.91 in 10.0 mi NNW 10.4 mph - N/A   Scattered Clouds
2:55 PM 48.2 °F - 35.6 °F 62% 29.91 in 10.0 mi NW 11.5 mph - N/A   Scattered Clouds
3:15 PM 50.0 °F - 35.6 °F 58% 29.91 in 10.0 mi NW 15.0 mph 20.7 mph N/A   Scattered Clouds
3:35 PM 50.0 °F - 33.8 °F 54% 29.91 in 10.0 mi NW 11.5 mph 17.3 mph N/A   Clear
3:55 PM 50.0 °F - 33.8 °F 54% 29.91 in 10.0 mi NW 13.8 mph 17.3 mph N/A   Scattered Clouds
4:15 PM 50.0 °F - 33.8 °F 54% 29.91 in 10.0 mi NW 12.7 mph 17.3 mph N/A   Scattered Clouds
4:35 PM 51.8 °F - 33.8 °F 50% 29.91 in 10.0 mi NNW 11.5 mph 16.1 mph N/A   Clear
4:55 PM 51.8 °F - 32.0 °F 47% 29.92 in 10.0 mi WNW 11.5 mph - N/A   Clear
5:15 PM 51.8 °F - 32.0 °F 47% 29.91 in 10.0 mi NW 11.5 mph - N/A   Clear
5:35 PM 51.8 °F - 32.0 °F 47% 29.92 in 10.0 mi NW 11.5 mph - N/A   Clear
5:55 PM 51.8 °F - 30.2 °F 44% 29.92 in 10.0 mi WNW 12.7 mph 17.3 mph N/A   Clear
6:15 PM 51.8 °F - 28.4 °F 41% 29.93 in 10.0 mi NW 13.8 mph - N/A   Clear
6:35 PM 50.0 °F - 26.6 °F 40% 29.94 in 10.0 mi NW 10.4 mph - N/A   Clear
6:55 PM 50.0 °F - 28.4 °F 43% 29.94 in 10.0 mi NW 6.9 mph - N/A   Clear
7:15 PM 46.4 °F 42.9 °F 30.2 °F 53% 29.95 in 10.0 mi WNW 6.9 mph - N/A   Clear
7:35 PM 46.4 °F 43.5 °F 30.2 °F 53% 29.95 in 10.0 mi West 5.8 mph - N/A   Clear
7:55 PM 44.6 °F 42.2 °F 30.2 °F 57% 29.96 in 10.0 mi WNW 4.6 mph - N/A   Clear
8:15 PM 44.6 °F 42.2 °F 30.2 °F 57% 29.96 in 10.0 mi WNW 4.6 mph - N/A   Clear
8:35 PM 44.6 °F 42.2 °F 28.4 °F 53% 29.97 in 10.0 mi West 4.6 mph - N/A   Clear
8:55 PM 44.6 °F 42.2 °F 28.4 °F 53% 29.99 in 10.0 mi WNW 4.6 mph - N/A   Clear
9:15 PM 44.6 °F 43.1 °F 28.4 °F 53% 30.00 in 10.0 mi West 3.5 mph - N/A   Clear
9:35 PM 44.6 °F - 28.4 °F 53% 30.00 in 10.0 mi Calm Calm - N/A   Clear
9:55 PM 44.6 °F 42.2 °F 28.4 °F 53% 30.01 in 10.0 mi WNW 4.6 mph - N/A   Clear
10:15 PM 44.6 °F 43.1 °F 28.4 °F 53% 30.02 in 10.0 mi WNW 3.5 mph - N/A   Clear
10:35 PM 42.8 °F - 26.6 °F 53% 30.03 in 10.0 mi Calm Calm - N/A   Clear
10:55 PM 42.8 °F - 26.6 °F 53% 30.02 in 10.0 mi Calm Calm - N/A   Clear
11:15 PM 42.8 °F - 26.6 °F 53% 30.03 in 10.0 mi Calm Calm - N/A   Clear
11:35 PM 41.0 °F - 26.6 °F 57% 30.04 in 10.0 mi Calm Calm - N/A   Clear
11:55 PM 41.0 °F 37.1 °F 26.6 °F 57% 30.05 in 10.0 mi North 5.8 mph - N/A   Clear